sat.trackr.live / text

‹ back to catalog

STARLINK-3344

NORAD 51110 · 2022-005G

PAYLOAD ACTIVE UNKNOWN

§ Identity

Operator
Country
US
Launch date
2022-01-19
Launch site
AFETR
Launch vehicle
Mass (kg)
RCS (m²)

Purposes: comms

External: N2YO · Heavens-Above · Gunter

§ Orbital elements

Epoch: 2026-09-20T04:47:40.640352Z

Period
93.85 min
Inclination
53.1603°
Eccentricity
0.0001109
Mean motion
15.34388515 rev/d
Perigee alt
462.0 km
Apogee alt
463.5 km
Semi-major
6,840.9 km
B*
3.7031e-5
RAAN
127.0525°
Arg perigee
77.2863°
Mean anomaly
282.8263°
Rev number
25,836

§ Raw data

STARLINK-33441 51110U 22005G   26263.19977593  .00000875  00000+0  37031-4 0  99932 51110  53.1603 127.0525 0001109  77.2863 282.8263 15.34388515258362

JSON: /api/v1/satellites/51110 · /tle

For live sub-satellite position, see the globe view (requires WebGL).

§ Visibility from observer

Set your observer location to see the next 7 days of passes ≥ 10°. The values pass through the URL so the page stays shareable.

No JS? Fill the form by hand. The geolocation button needs JavaScript.